JP7FSO Weather Reports


time (UTC)temp
C
wind
direction
speed
KPH
gust
KPH
rain 1hr
cm
rain 24hr
cm
rain mn
cm
humidity
%
barometer
mb
20260510001604 20 116 1.6 0.0 0.00 0.00 0.00 27 1012.9
20260510000025 20 152 0.0 0.0 0.00 0.00 0.00 29 1013.0
20260509234616 19 248 0.0 0.0 0.00 0.00 0.00 36 1013.1
20260509233056 18 120 1.6 0.0 0.00 0.00 0.00 34 1013.2
20260509230012 16 295 0.0 0.0 0.00 0.00 0.00 47 1013.1
20260509224555 15 297 0.0 0.0 0.00 0.00 0.00 54 1013.0
20260509223029 13 286 0.0 0.0 0.00 0.00 0.00 56 1013.0
20260509221515 12 191 0.0 0.0 0.00 0.00 0.00 62 1013.0
20260509220100 12 134 0.0 0.0 0.00 0.00 0.00 64 1013.0
20260509214508 11 110 0.0 0.0 0.00 0.00 0.00 68 1012.9
20260509213104 10 260 0.0 0.0 0.00 0.00 0.00 68 1012.8
20260509211507 9 279 0.0 0.0 0.00 0.00 0.00 69 1012.6
20260509210007 8 99 0.0 0.0 0.00 0.00 0.00 70 1012.4
20260509204504 8 282 1.6 0.0 0.00 0.00 0.00 70 1012.2
20260509203012 8 320 0.0 0.0 0.00 0.00 0.00 69 1011.9
20260509201508 8 300 0.0 0.0 0.00 0.00 0.00 68 1011.7
20260509200008 8 305 0.0 0.0 0.00 0.00 0.00 67 1011.3
20260509193109 8 315 0.0 0.0 0.00 0.00 0.00 66 1010.7
20260509191504 9 293 0.0 0.0 0.00 0.00 0.00 66 1010.6
20260509190023 9 288 0.0 0.0 0.00 0.00 0.00 65 1010.6
20260509184509 9 291 0.0 0.0 0.00 0.00 0.00 64 1010.4
20260509183028 10 297 0.0 0.0 0.00 0.00 0.00 63 1010.2
20260509181512 10 298 0.0 0.0 0.00 0.00 0.00 62 1010.1
20260509180019 10 281 0.0 0.0 0.00 0.00 0.00 61 1010.0
20260509174508 10 278 0.0 0.0 0.00 0.00 0.00 60 1009.8
20260509173015 10 296 0.0 0.0 0.00 0.00 0.00 59 1009.6
20260509171511 11 320 0.0 0.0 0.00 0.00 0.00 59 1009.6
20260509170027 11 85 0.0 0.0 0.00 0.00 0.00 57 1009.5
20260509164514 12 119 0.0 0.0 0.00 0.00 0.00 55 1009.3
20260509163018 12 243 0.0 0.0 0.00 0.00 0.00 52 1009.0
20260509161512 13 297 3.2 0.0 0.00 0.00 0.00 49 1009.0
20260509160059 13 298 1.6 0.0 0.00 0.00 0.00 47 1008.9
20260509154520 13 276 1.6 0.0 0.00 0.00 0.00 46 1008.7
20260509153010 13 270 1.6 0.0 0.00 0.00 0.00 47 1008.6
20260509151511 13 251 0.0 0.0 0.00 0.00 0.00 47 1008.5
20260509150009 13 269 0.0 0.0 0.00 0.00 0.00 49 1008.5
20260509140008 13 251 0.0 0.0 0.00 0.00 0.00 46 1008.0
20260509134507 13 347 0.0 0.0 0.00 0.00 0.00 47 1008.0
20260509133012 13 266 0.0 0.0 0.00 0.00 0.00 46 1007.9
20260509131509 13 292 0.0 0.0 0.00 0.00 0.00 47 1007.7
20260509130011 14 262 0.0 0.0 0.00 0.00 0.00 47 1007.5
20260509124518 14 285 0.0 0.0 0.00 0.00 0.00 46 1007.4
20260509123106 14 283 0.0 0.0 0.00 0.00 0.00 45 1007.1
20260509121523 14 296 1.6 0.0 0.00 0.00 0.00 45 1007.0
20260509120023 14 277 1.6 0.0 0.00 0.00 0.00 45 1006.9
20260509113008 15 305 3.2 0.0 0.00 0.00 0.00 44 1006.4
20260509111601 15 290 3.2 0.0 0.00 0.00 0.00 44 1006.3
20260509110105 15 352 3.2 0.0 0.00 0.00 0.00 42 1006.3
20260509104557 15 273 4.8 0.0 0.00 0.00 0.00 40 1006.5
20260509103005 15 262 1.6 0.0 0.00 0.00 0.00 40 1006.1
20260509101515 15 285 0.0 0.0 0.00 0.00 0.00 38 1005.9
20260509100005 16 261 1.6 0.0 0.00 0.00 0.00 36 1005.4
20260509094505 16 262 1.6 0.0 0.00 0.00 0.00 34 1005.4
20260509093033 16 282 3.2 0.0 0.00 0.00 0.00 35 1005.2
20260509091526 16 114 3.2 0.0 0.00 0.00 0.00 34 1005.2
20260509090032 17 295 3.2 0.0 0.00 0.00 0.00 30 1004.8
20260509084522 17 301 6.4 0.0 0.00 0.00 0.00 29 1004.8
20260509083115 17 297 6.4 0.0 0.00 0.00 0.00 28 1003.9
20260509081537 18 340 3.2 0.0 0.00 0.00 0.00 27 1003.8
20260509074536 19 268 4.8 0.0 0.00 0.00 0.00 26 1003.4
20260509073101 19 262 4.8 0.0 0.00 0.00 0.00 26 1003.3
20260509071516 20 253 6.4 0.0 0.00 0.00 0.00 25 1003.2
20260509070024 20 301 4.8 0.0 0.00 0.00 0.00 25 1003.2
20260509064614 20 197 3.2 0.0 0.00 0.00 0.00 24 1002.8
20260509063026 20 269 8.0 0.0 0.00 0.00 0.00 24 1002.3
20260509061616 20 300 8.0 0.0 0.00 0.00 0.00 24 1002.5
20260509054525 20 161 8.0 0.0 0.00 0.00 0.00 25 1002.3
20260509053005 20 277 8.0 0.0 0.00 0.00 0.00 27 1002.6
20260509051533 20 259 9.7 0.0 0.00 0.00 0.00 27 1002.6
20260509050018 20 277 8.0 0.0 0.00 0.00 0.00 28 1002.4
20260509041526 19 262 3.2 0.0 0.00 0.00 0.00 35 1002.7
20260509034514 20 340 6.4 0.0 0.00 0.00 0.00 31 1002.5
20260509033116 20 245 4.8 0.0 0.00 0.00 0.00 29 1002.5
20260509031518 20 305 3.2 0.0 0.00 0.00 0.00 33 1002.6
20260509030007 20 297 3.2 0.0 0.00 0.00 0.00 31 1002.4
20260509024509 18 269 4.8 0.0 0.00 0.00 0.00 34 1002.6
20260509023017 18 221 6.4 0.0 0.00 0.00 0.00 35 1002.7
20260509021504 18 306 4.8 0.0 0.00 0.00 0.00 40 1002.7
20260509020027 17 200 1.6 0.0 0.00 0.00 0.00 43 1002.8
20260509014529 16 271 8.0 0.0 0.00 0.00 0.00 44 1003.2
20260509013023 16 244 6.4 0.0 0.00 0.00 0.00 45 1002.8
20260509011513 16 327 6.4 0.0 0.00 0.00 0.00 50 1002.7
20260509004523 15 270 6.4 0.0 0.00 0.00 0.00 49 1002.3
20260509003059 15 295 6.4 0.0 0.00 0.00 0.00 49 1002.0